| time (UTC) | temp F | wind direction | speed knots | gust knots | rain 1hr in | rain 24hr in | rain mn in | humidity % | barometer mb |
| 20260505004103 | 55 | 355 | 0.9 | 1.7 | 0.00 | 0.43 | 0.00 | 96 | 1008.1 |
| 20260505003529 | 55 | 5 | 0.9 | 1.7 | 0.00 | 0.43 | 0.00 | 96 | 1008.2 |
| 20260505003105 | 55 | 355 | 0.9 | 0.9 | 0.00 | 0.43 | 0.00 | 96 | 1008.3 |
| 20260505002530 | 55 | 27 | 0.0 | 0.9 | 0.00 | 0.43 | 0.00 | 96 | 1008.3 |
| 20260505002044 | 55 | 32 | 0.0 | 1.7 | 0.00 | 0.43 | 0.00 | 96 | 1008.3 |
| 20260505001528 | 55 | 32 | 0.0 | 1.7 | 0.00 | 0.43 | 0.00 | 96 | 1008.3 |
| 20260505001040 | 55 | 360 | 0.0 | 0.0 | 0.00 | 0.43 | 0.00 | 96 | 1008.4 |
| 20260505000528 | 55 | 360 | 0.0 | 0.9 | 0.00 | 0.43 | 0.00 | 96 | 1008.4 |
| 20260505000056 | 55 | 360 | 0.0 | 2.6 | 0.00 | 0.43 | 0.09 | 96 | 1008.4 |
| 20260504235530 | 55 | 355 | 0.9 | 1.7 | 0.00 | 0.43 | 0.09 | 96 | 1008.3 |
| 20260504235044 | 55 | 13 | 0.0 | 1.7 | 0.00 | 0.43 | 0.09 | 96 | 1008.4 |
| 20260504234533 | 55 | 54 | 0.0 | 2.6 | 0.00 | 0.43 | 0.09 | 96 | 1008.4 |
| 20260504234030 | 55 | 40 | 0.9 | 2.6 | 0.00 | 0.43 | 0.09 | 96 | 1008.3 |
| 20260504233535 | 55 | 19 | 1.7 | 2.6 | 0.00 | 0.43 | 0.09 | 96 | 1008.2 |
| 20260504233036 | 55 | 13 | 0.9 | 2.6 | 0.00 | 0.43 | 0.09 | 96 | 1008.3 |
| 20260504232540 | 56 | 19 | 0.9 | 2.6 | 0.00 | 0.43 | 0.09 | 96 | 1008.3 |
| 20260504232043 | 56 | 26 | 0.9 | 2.6 | 0.00 | 0.43 | 0.09 | 96 | 1008.4 |
| 20260504231530 | 56 | 20 | 1.7 | 2.6 | 0.00 | 0.43 | 0.09 | 96 | 1008.4 |
| 20260504231044 | 56 | 11 | 0.9 | 3.5 | 0.00 | 0.43 | 0.09 | 96 | 1008.5 |
| 20260504230531 | 56 | 355 | 1.7 | 3.5 | 0.00 | 0.43 | 0.09 | 96 | 1008.5 |
| 20260504230046 | 56 | 355 | 1.7 | 3.5 | 0.00 | 0.43 | 0.09 | 96 | 1008.6 |
| 20260504225533 | 56 | 355 | 0.9 | 2.6 | 0.00 | 0.43 | 0.09 | 96 | 1008.7 |
| 20260504225030 | 56 | 346 | 0.9 | 3.5 | 0.00 | 0.43 | 0.09 | 96 | 1008.6 |
| 20260504224542 | 56 | 331 | 1.7 | 3.5 | 0.00 | 0.43 | 0.09 | 96 | 1008.5 |
| 20260504224042 | 56 | 350 | 1.7 | 4.3 | 0.00 | 0.43 | 0.09 | 96 | 1008.6 |
| 20260504223551 | 56 | 360 | 1.7 | 4.3 | 0.00 | 0.43 | 0.09 | 96 | 1008.5 |
| 20260504223040 | 56 | 360 | 0.9 | 4.3 | 0.00 | 0.43 | 0.09 | 95 | 1008.7 |
| 20260504222545 | 56 | 5 | 0.9 | 4.3 | 0.00 | 0.43 | 0.09 | 95 | 1008.8 |
| 20260504222043 | 56 | 355 | 1.7 | 3.5 | 0.00 | 0.43 | 0.09 | 95 | 1008.8 |
| 20260504221559 | 57 | 355 | 0.0 | 0.9 | 0.00 | 0.43 | 0.09 | 95 | 1009.1 |
| 20260504221039 | 57 | 355 | 0.0 | 0.9 | 0.00 | 0.43 | 0.09 | 95 | 1009.0 |
| 20260504220540 | 57 | 17 | 0.0 | 0.9 | 0.00 | 0.43 | 0.09 | 95 | 1009.1 |
| 20260504220032 | 57 | 9 | 0.0 | 0.9 | 0.00 | 0.43 | 0.09 | 95 | 1009.1 |
| 20260504215538 | 57 | 9 | 0.0 | 1.7 | 0.00 | 0.43 | 0.09 | 95 | 1009.2 |
| 20260504215040 | 57 | 360 | 0.0 | 1.7 | 0.00 | 0.43 | 0.09 | 95 | 1009.2 |
| 20260504214547 | 57 | 16 | 0.0 | 0.9 | 0.00 | 0.43 | 0.09 | 95 | 1009.3 |
| 20260504214032 | 57 | 17 | 0.0 | 0.9 | 0.00 | 0.43 | 0.09 | 95 | 1009.4 |
| 20260504213602 | 57 | 11 | 0.0 | 0.9 | 0.00 | 0.43 | 0.09 | 94 | 1009.4 |
| 20260504213053 | 57 | 12 | 0.0 | 1.7 | 0.00 | 0.43 | 0.09 | 94 | 1009.3 |
| 20260504212537 | 57 | 355 | 0.9 | 1.7 | 0.00 | 0.43 | 0.09 | 94 | 1009.4 |
| 20260504212045 | 57 | 355 | 0.0 | 1.7 | 0.00 | 0.43 | 0.09 | 94 | 1009.4 |
| 20260504211531 | 58 | 11 | 0.0 | 1.7 | 0.00 | 0.43 | 0.09 | 93 | 1009.5 |
| 20260504211034 | 58 | 17 | 0.0 | 3.5 | 0.00 | 0.43 | 0.09 | 93 | 1009.5 |
| 20260504210543 | 58 | 19 | 0.9 | 3.5 | 0.00 | 0.43 | 0.09 | 93 | 1009.5 |
| 20260504210036 | 58 | 355 | 0.9 | 4.3 | 0.00 | 0.43 | 0.09 | 93 | 1009.5 |
| 20260504205544 | 58 | 355 | 1.7 | 4.3 | 0.00 | 0.43 | 0.09 | 93 | 1009.5 |
| 20260504205108 | 58 | 360 | 1.7 | 3.5 | 0.00 | 0.43 | 0.09 | 93 | 1009.4 |
| 20260504204533 | 58 | 355 | 1.7 | 3.5 | 0.00 | 0.43 | 0.09 | 92 | 1009.5 |
| 20260504204031 | 58 | 360 | 0.9 | 2.6 | 0.00 | 0.43 | 0.09 | 92 | 1009.5 |
| 20260504203542 | 59 | 17 | 0.0 | 1.7 | 0.00 | 0.43 | 0.09 | 92 | 1009.5 |
| 20260504203041 | 59 | 16 | 0.0 | 1.7 | 0.00 | 0.43 | 0.09 | 93 | 1009.6 |
| 20260504202549 | 59 | 37 | 0.0 | 2.6 | 0.00 | 0.43 | 0.09 | 92 | 1009.7 |
| 20260504202047 | 59 | 23 | 0.9 | 3.5 | 0.00 | 0.43 | 0.09 | 92 | 1009.7 |
| 20260504201535 | 59 | 37 | 1.7 | 3.5 | 0.00 | 0.43 | 0.09 | 92 | 1009.6 |
| 20260504201032 | 59 | 34 | 0.9 | 2.6 | 0.00 | 0.43 | 0.09 | 91 | 1009.6 |
| 20260504200537 | 59 | 42 | 0.9 | 1.7 | 0.00 | 0.43 | 0.09 | 91 | 1009.6 |
| 20260504200034 | 60 | 44 | 0.0 | 2.6 | 0.00 | 0.43 | 0.09 | 91 | 1009.6 |
| 20260504195547 | 60 | 44 | 1.7 | 4.3 | 0.00 | 0.43 | 0.09 | 91 | 1009.6 |
| 20260504195032 | 60 | 28 | 1.7 | 5.2 | 0.00 | 0.43 | 0.09 | 90 | 1009.6 |
| 20260504194607 | 60 | 44 | 2.6 | 5.2 | 0.00 | 0.43 | 0.09 | 90 | 1009.5 |
| 20260504194049 | 60 | 44 | 1.7 | 5.2 | 0.00 | 0.43 | 0.09 | 89 | 1009.5 |
| 20260504193534 | 60 | 53 | 1.7 | 4.3 | 0.00 | 0.43 | 0.09 | 88 | 1009.4 |
| 20260504193036 | 60 | 42 | 1.7 | 3.5 | 0.00 | 0.43 | 0.09 | 88 | 1009.4 |
| 20260504192539 | 60 | 36 | 2.6 | 3.5 | 0.00 | 0.43 | 0.09 | 88 | 1009.2 |
| 20260504192106 | 61 | 51 | 2.6 | 3.5 | 0.00 | 0.43 | 0.09 | 88 | 1009.2 |
| 20260504191529 | 61 | 17 | 1.7 | 4.3 | 0.00 | 0.43 | 0.09 | 87 | 1009.2 |
| 20260504191035 | 61 | 27 | 2.6 | 3.5 | 0.00 | 0.43 | 0.09 | 87 | 1009.2 |
| 20260504190608 | 61 | 34 | 1.7 | 3.5 | 0.00 | 0.43 | 0.09 | 87 | 1009.3 |
| 20260504190040 | 61 | 38 | 1.7 | 3.5 | 0.00 | 0.43 | 0.09 | 87 | 1009.3 |
| 20260504185607 | 61 | 49 | 2.6 | 3.5 | 0.00 | 0.43 | 0.09 | 87 | 1009.3 |
| 20260504185038 | 62 | 49 | 0.9 | 3.5 | 0.00 | 0.43 | 0.09 | 87 | 1009.4 |
| 20260504184541 | 62 | 48 | 1.7 | 3.5 | 0.00 | 0.43 | 0.09 | 87 | 1009.3 |
| 20260504184033 | 62 | 53 | 1.7 | 2.6 | 0.00 | 0.43 | 0.09 | 86 | 1009.2 |
| 20260504183606 | 62 | 35 | 1.7 | 2.6 | 0.00 | 0.43 | 0.09 | 86 | 1009.3 |
| 20260504183054 | 62 | 37 | 1.7 | 2.6 | 0.00 | 0.43 | 0.09 | 85 | 1009.2 |
| 20260504182541 | 62 | 41 | 0.9 | 2.6 | 0.00 | 0.43 | 0.09 | 85 | 1009.4 |
| 20260504182100 | 62 | 49 | 0.9 | 3.5 | 0.00 | 0.43 | 0.09 | 85 | 1009.3 |
| 20260504181543 | 63 | 34 | 1.7 | 3.5 | 0.00 | 0.43 | 0.09 | 85 | 1009.3 |
| 20260504181053 | 63 | 40 | 0.9 | 3.5 | 0.00 | 0.43 | 0.09 | 84 | 1009.3 |
| 20260504180539 | 63 | 42 | 1.7 | 2.6 | 0.00 | 0.43 | 0.09 | 85 | 1009.2 |
| 20260504180033 | 63 | 38 | 1.7 | 2.6 | 0.00 | 0.43 | 0.09 | 84 | 1009.1 |
| 20260504175552 | 63 | 40 | 0.9 | 3.5 | 0.00 | 0.43 | 0.09 | 84 | 1009.1 |
| 20260504175038 | 63 | 15 | 1.7 | 3.5 | 0.00 | 0.43 | 0.09 | 83 | 1009.0 |
| 20260504174545 | 63 | 5 | 2.6 | 3.5 | 0.00 | 0.43 | 0.09 | 83 | 1008.9 |
| 20260504174035 | 63 | 39 | 1.7 | 2.6 | 0.00 | 0.43 | 0.09 | 82 | 1008.9 |
| 20260504173034 | 64 | 75 | 1.7 | 4.3 | 0.00 | 0.43 | 0.09 | 80 | 1008.9 |
| 20260504172545 | 64 | 11 | 1.7 | 3.5 | 0.00 | 0.43 | 0.09 | 82 | 1008.9 |
| 20260504172035 | 64 | 46 | 0.9 | 3.5 | 0.00 | 0.43 | 0.09 | 82 | 1008.9 |
| 20260504171536 | 64 | 32 | 0.9 | 2.6 | 0.00 | 0.43 | 0.09 | 80 | 1008.9 |
| 20260504171106 | 64 | 40 | 0.9 | 2.6 | 0.00 | 0.43 | 0.09 | 80 | 1008.9 |
| 20260504170529 | 64 | 5 | 0.9 | 2.6 | 0.00 | 0.43 | 0.09 | 80 | 1009.0 |
| 20260504151101 | 65 | 76 | 0.9 | 5.2 | 0.00 | 0.51 | 0.09 | 82 | 1009.6 |
| 20260504150526 | 65 | 40 | 0.9 | 5.2 | 0.00 | 0.51 | 0.09 | 82 | 1009.6 |
| 20260504141027 | 65 | 92 | 3.5 | 7.0 | 0.00 | 0.94 | 0.09 | 79 | 1010.0 |
| 20260504140537 | 65 | 105 | 3.5 | 7.0 | 0.00 | 0.94 | 0.09 | 78 | 1010.0 |
| 20260504130602 | 64 | 80 | 1.7 | 3.5 | 0.00 | 0.94 | 0.09 | 85 | 1010.4 |
| 20260504110529 | 62 | 123 | 4.3 | 7.8 | 0.04 | 0.94 | 0.09 | 90 | 1011.0 |
| 20260504100537 | 59 | 139 | 0.0 | 0.9 | 0.00 | 0.91 | 0.08 | 93 | 1011.5 |
| 20260504081547 | 58 | 200 | 0.9 | 2.6 | 0.00 | 0.91 | 0.08 | 94 | 1011.3 |
| 20260504081030 | 58 | 191 | 0.9 | 3.5 | 0.00 | 0.91 | 0.08 | 94 | 1011.3 |
| 20260504080533 | 58 | 223 | 0.9 | 3.5 | 0.00 | 0.91 | 0.08 | 94 | 1011.3 |
| 20260504050545 | 55 | 207 | 1.7 | 2.6 | 0.04 | 1.10 | 0.06 | 96 | 1010.4 |
| 20260504045606 | 56 | 211 | 0.9 | 2.6 | 0.04 | 1.38 | 0.06 | 96 | 1010.4 |
| 20260504045032 | 56 | 221 | 0.9 | 1.7 | 0.04 | 1.38 | 0.06 | 96 | 1010.3 |
| 20260504044533 | 56 | 221 | 0.9 | 3.5 | 0.04 | 1.38 | 0.06 | 96 | 1010.3 |
| 20260504044033 | 56 | 216 | 0.9 | 3.5 | 0.08 | 1.38 | 0.06 | 96 | 1010.2 |
| 20260504043540 | 56 | 277 | 1.7 | 3.5 | 0.04 | 1.34 | 0.06 | 96 | 1010.3 |
| 20260504043037 | 56 | 217 | 0.9 | 3.5 | 0.04 | 1.34 | 0.06 | 96 | 1010.3 |
| 20260504042546 | 56 | 248 | 0.9 | 3.5 | 0.04 | 1.34 | 0.06 | 96 | 1010.3 |
| 20260504042045 | 56 | 263 | 0.9 | 5.2 | 0.04 | 1.34 | 0.06 | 96 | 1010.3 |
| 20260504041533 | 56 | 236 | 1.7 | 5.2 | 0.04 | 1.34 | 0.06 | 96 | 1010.2 |
| 20260504041030 | 56 | 227 | 1.7 | 4.3 | 0.04 | 1.34 | 0.06 | 96 | 1010.3 |
| 20260504040540 | 56 | 196 | 1.7 | 3.5 | 0.04 | 1.34 | 0.06 | 96 | 1010.3 |
| 20260504040028 | 56 | 210 | 0.9 | 3.5 | 0.04 | 1.50 | 0.06 | 96 | 1010.3 |
| 20260504035542 | 56 | 232 | 1.7 | 5.2 | 0.04 | 1.50 | 0.06 | 96 | 1010.3 |
| 20260504035038 | 56 | 227 | 1.7 | 5.2 | 0.04 | 1.50 | 0.06 | 96 | 1010.3 |
| 20260504034531 | 56 | 220 | 1.7 | 4.3 | 0.08 | 1.50 | 0.06 | 96 | 1010.3 |
| 20260504034030 | 56 | 227 | 1.7 | 5.2 | 0.04 | 1.46 | 0.05 | 96 | 1010.3 |
| 20260504033601 | 57 | 225 | 1.7 | 7.0 | 0.04 | 1.46 | 0.05 | 96 | 1010.4 |
| 20260504033101 | 57 | 219 | 1.7 | 7.0 | 0.16 | 1.46 | 0.05 | 96 | 1010.3 |
| 20260504032530 | 57 | 194 | 2.6 | 4.3 | 0.16 | 1.46 | 0.05 | 96 | 1010.4 |
| 20260504032038 | 57 | 219 | 1.7 | 6.1 | 0.16 | 1.46 | 0.05 | 95 | 1010.4 |
| 20260504031538 | 57 | 189 | 2.6 | 6.1 | 0.16 | 1.46 | 0.05 | 95 | 1010.4 |
| 20260504031035 | 57 | 221 | 2.6 | 4.3 | 0.20 | 1.46 | 0.05 | 96 | 1010.4 |
| 20260504030532 | 57 | 195 | 1.7 | 4.3 | 0.24 | 1.46 | 0.05 | 95 | 1010.4 |
| 20260504030032 | 57 | 224 | 2.6 | 4.3 | 0.24 | 1.46 | 0.05 | 96 | 1010.5 |
| 20260504025536 | 57 | 238 | 0.9 | 4.3 | 0.24 | 1.46 | 0.05 | 96 | 1010.5 |
| 20260504025041 | 57 | 214 | 1.7 | 4.3 | 0.24 | 1.46 | 0.05 | 96 | 1010.5 |
| 20260504024547 | 57 | 202 | 1.7 | 3.5 | 0.20 | 1.42 | 0.04 | 95 | 1010.6 |
| 20260504024050 | 57 | 218 | 1.7 | 3.5 | 0.20 | 1.42 | 0.04 | 95 | 1010.6 |
| 20260504023534 | 57 | 218 | 1.7 | 5.2 | 0.20 | 1.42 | 0.04 | 95 | 1010.6 |
| 20260504023036 | 57 | 213 | 2.6 | 6.1 | 0.08 | 1.30 | 0.02 | 95 | 1010.6 |
| 20260504022542 | 57 | 217 | 2.6 | 6.1 | 0.08 | 1.30 | 0.02 | 95 | 1010.6 |
| 20260504022045 | 57 | 227 | 2.6 | 6.1 | 0.08 | 1.30 | 0.02 | 95 | 1010.6 |
| 20260504021540 | 57 | 213 | 3.5 | 6.1 | 0.08 | 1.30 | 0.02 | 95 | 1010.5 |
| 20260504021031 | 57 | 232 | 1.7 | 7.0 | 0.00 | 1.22 | 0.00 | 95 | 1010.6 |
| 20260504020559 | 58 | 227 | 2.6 | 7.0 | 0.00 | 1.22 | 0.00 | 95 | 1010.6 |
| 20260504020101 | 58 | 243 | 2.6 | 7.0 | 0.00 | 1.22 | 0.00 | 94 | 1010.6 |
| 20260504015534 | 57 | 229 | 2.6 | 7.0 | 0.00 | 1.22 | 0.00 | 95 | 1010.5 |
| 20260504015039 | 57 | 225 | 2.6 | 5.2 | 0.00 | 1.22 | 0.00 | 95 | 1010.6 |
| 20260504014536 | 57 | 219 | 2.6 | 6.1 | 0.00 | 1.22 | 0.00 | 95 | 1010.6 |
| 20260504014035 | 57 | 223 | 1.7 | 6.1 | 0.00 | 1.22 | 0.00 | 95 | 1010.6 |
| 20260504013544 | 57 | 198 | 1.7 | 4.3 | 0.00 | 1.22 | 0.00 | 95 | 1010.5 |
| 20260504013053 | 57 | 224 | 1.7 | 4.3 | 0.00 | 1.22 | 0.00 | 95 | 1010.6 |
| 20260504012541 | 57 | 219 | 1.7 | 4.3 | 0.00 | 1.22 | 0.00 | 95 | 1010.6 |
| 20260504012103 | 57 | 225 | 1.7 | 4.3 | 0.00 | 1.22 | 0.00 | 95 | 1010.6 |
| 20260504011601 | 57 | 234 | 1.7 | 3.5 | 0.00 | 1.22 | 0.00 | 95 | 1010.6 |
| 20260504011035 | 57 | 199 | 0.9 | 3.5 | 0.00 | 1.22 | 0.00 | 95 | 1010.6 |
| 20260504010547 | 57 | 205 | 1.7 | 3.5 | 0.00 | 1.22 | 0.00 | 95 | 1010.6 |
| 20260504010036 | 57 | 215 | 1.7 | 3.5 | 0.00 | 1.22 | 0.00 | 95 | 1010.6 |
| 20260504005608 | 57 | 209 | 1.7 | 3.5 | 0.00 | 1.22 | 0.00 | 95 | 1010.7 |
| 20260504005031 | 57 | 208 | 1.7 | 3.5 | 0.00 | 1.22 | 0.00 | 95 | 1010.7 |
| 20260504004534 | 57 | 203 | 0.9 | 3.5 | 0.00 | 1.22 | 0.00 | 95 | 1010.8 |